Voltar ao catálogo

COSMOS 1150

AtivoNavegaçãoPO
NORAD 11667·PAYLOAD·🇷🇺 Russia

Lançado Jan 14, 1980 de Plesetsk Cosmodrome

Loading…

Próximas Passagens (próximas 24 horas)

TLE

AtualizadoSource: Space-Track

Época: Sep 14, 2026, 21:30 UTC

1 11667U 80003A   26257.89612965  .00000053  00000-0  40478-4 0  9995
2 11667  82.9526 112.4737 0032932  36.1605 340.6755 13.73684533334687

Acompanhe COSMOS 1150 em tempo real com AllMySat

Download on the App Store